Location: Downe
(51.3167°N, 0.0500°E)
Time: 06:46:28
(UTC+00:00)

CZ-2C R/B - Pass Details

Date: 17 November 2019
Orbit: 667 x 785 km, 98.1° (Epoch: 09 December)

Event Time Altitude Azimuth Distance (km) Brightness Sun altitude
Rises 06:21:32 0° 3° (N) 3,200 5.6 -9.1°
Reaches altitude 10° 06:24:43 10° 342° (NNW) 2,247 4.6 -8.6°
Maximum altitude 06:27:32 15° 307° (NW) 1,871 3.9 -8.2°
Drops below altitude 10° 06:30:18 10° 272° (W) 2,195 4.3 -7.8°
Enters shadow 06:32:24 - 255° (WSW) 2,772 4.9 -7.5°
